[[{"header":{"parameterUnit":"m.s-1","parameterCategory":1,"la1":30.2991,"la2":30.254,"lo1":-89.0895,"lo2":-89.0444,"dy":0.0017,"dx":0.0017,"nx":28,"ny":28,"refTime":"2024-02-11T03:00:00:Z","depth":0,"parameterNumber":2,"parameterNumberName":"U-component_of_WINDS"},"data":[0,0,0,0,0,0,0,0,0,0,0,0,0,0,0,0,0,0,0,0,0,0,0,0,0,0,0,0,0,0,0,0,0,0,0,0,0,0,0,0,0,0,0,0,0,0,0,0,0,0,0,0,0,0,0,0,0,0,3.423,3.4228,0,3.409,3.4088,3.4087,3.3995,3.3995,3.3994,3.3993,3.3853,3.385,3.3847,0,0,0,0,0,0,0,0,0,0,0,0,0,3.4425,3.4422,3.423,3.4228,3.4226,3.409,3.4088,3.4086,3.3995,3.3994,3.3994,3.3993,3.3855,3.3851,3.3847,0,0,0,0,0,0,0,0,0,0,0,0,0,3.4319,3.4421,3.423,3.4164,3.4157,3.409,3.4088,3.4086,3.3995,3.3994,3.3994,3.3993,3.3856,3.3851,3.3846,3.3835,0,0,3.3832,3.383,0,0,0,0,0,0,0,0,3.4325,3.4312,3.4176,3.4169,3.4161,3.4059,3.4106,3.4002,3.3996,3.4057,3.3993,3.3992,3.3923,3.3912,3.3888,3.3828,3.3822,3.3831,3.3829,3.3827,3.3825,0,0,0,0,0,0,0,3.4332,3.4317,3.4174,3.4174,3.4165,3.4144,3.4128,3.4086,3.3997,3.4051,3.4045,3.4029,3.3918,3.3893,3.3884,3.382,3.3832,3.3827,3.3824,3.3823,3.375,3.3751,0,0,0,0,0,0,3.4349,3.4324,3.4179,3.417,3.4242,3.4142,3.4123,3.4093,3.3997,3.3981,3.403,3.4025,3.3902,3.389,3.3879,3.3862,3.3827,3.3822,3.3819,3.3749,3.375,3.3751,0,0,0,0,0,0,3.4354,3.4337,3.4185,3.4245,3.4224,3.4139,3.4105,3.409,3.4064,3.398,3.3965,3.402,3.39,3.3886,3.3848,3.3856,3.382,3.3816,3.3748,3.3749,3.3751,3.3826,0,0,0,0,0,0,3.436,3.4339,3.4332,3.4246,3.4221,3.4153,3.4106,3.4088,3.4056,3.4049,3.3967,3.3952,3.3899,3.3855,3.3843,3.3849,3.3812,3.3747,3.3749,3.375,3.3823,3.383,3.3837,0,0,0,0,0,3.4367,3.4358,3.4332,3.4315,3.421,3.4154,3.414,3.4077,3.4057,3.4051,3.3998,3.3955,3.3858,3.3852,3.3837,3.3842,3.3746,3.3748,3.375,3.382,3.3829,3.3837,0,0,0,0,0,0,3.4447,3.4346,3.4315,3.4278,3.4225,3.4138,3.4127,3.4088,3.404,3.4036,3.3961,3.3944,3.3914,3.3874,3.387,3.3829,3.3797,3.3796,3.3855,3.3863,3.387,3.388,3.3808,0,0,0,0,0,3.4461,3.4422,3.4336,3.4312,3.4287,3.4213,3.4186,3.4142,3.4085,3.4062,3.4006,3.3954,3.3912,3.3885,3.3842,3.3818,3.3801,3.3814,3.3821,3.3827,3.3827,3.3816,3.3822,3.3758,3.3758,3.3758,0,0,3.4488,3.4428,3.4408,3.4327,3.428,3.4245,3.4194,3.4157,3.413,3.4057,3.4017,3.3976,3.3913,3.3883,3.3867,3.3849,3.3842,3.383,3.3835,3.3832,3.3819,3.3825,3.3831,3.3759,3.3759,3.3759,0,0,3.4519,3.4469,3.4444,3.4401,3.4332,3.4284,3.4279,3.4199,3.4168,3.4127,3.4073,3.4042,3.397,3.3929,3.3898,3.3921,3.3882,3.3909,3.3945,3.3935,3.394,3.3944,3.3955,3.3959,3.391,3.391,3.391,0,3.4561,3.4503,3.4437,3.4404,3.4372,3.4306,3.4283,3.4244,3.4165,3.4146,3.4127,3.4039,3.3991,3.3953,3.3959,3.3936,3.393,3.3917,3.3944,3.3948,3.3951,3.396,3.3964,3.3914,3.3914,3.3913,3.3913,0,3.456,3.4521,3.4511,3.4437,3.4404,3.4376,3.4309,3.4284,3.4246,3.4201,3.4164,3.4106,3.4051,3.4039,3.4,3.3997,3.3988,3.3958,3.3924,3.3962,3.3969,3.3972,3.392,3.3918,3.3917,3.3916,0,0,3.4633,3.4528,3.4525,3.4493,3.4416,3.4385,3.4358,3.4304,3.4285,3.4236,3.4212,3.4156,3.4129,3.4095,3.4052,3.4043,3.4069,3.4014,3.4012,3.4028,3.4065,3.4089,3.4093,3.4043,3.4044,3.4044,3.4071,0,3.4653,3.4597,3.454,3.4506,3.4471,3.4411,3.4387,3.4339,3.4298,3.4265,3.422,3.4182,3.4148,3.4128,3.4116,3.4068,3.4076,3.4066,3.4023,3.4022,3.404,3.4097,3.412,3.4148,3.4073,3.4074,3.4074,0,3.4667,3.4622,3.4584,3.4514,3.4498,3.4477,3.4426,3.4395,3.4341,3.4312,3.4277,3.4233,3.4204,3.4177,3.4138,3.4133,3.4113,3.4088,3.4087,3.408,3.405,3.4092,3.4155,3.416,3.4078,3.4077,3.4077,0,3.4727,3.4656,3.4625,3.4599,3.4517,3.4505,3.447,3.4416,3.4389,3.4346,3.4329,3.4283,3.4258,3.4226,3.4172,3.4156,3.4141,3.4107,3.4118,3.412,3.4116,3.4117,3.4177,3.4103,3.4103,3.4103,3.4103,0,3.4755,3.4735,3.4651,3.4632,3.461,3.4547,3.4527,3.4487,3.4441,3.4415,3.4361,3.4339,3.4269,3.424,3.4199,3.4175,3.4164,3.4142,3.4131,3.4146,3.415,3.4132,3.4128,3.4104,3.4104,3.4104,3.4104,0,3.4816,3.4759,3.4722,3.4649,3.4631,3.4617,3.4556,3.4537,3.4495,3.4464,3.4453,3.4387,3.4351,3.4295,3.4241,3.4213,3.4198,3.4179,3.4215,3.4209,3.4223,3.4223,3.4274,3.4278,3.4202,3.4203,3.4204,0,3.4838,3.4821,3.4748,3.4727,3.4694,3.4661,3.4634,3.4574,3.4549,3.449,3.448,3.4439,3.4403,3.4349,3.4297,3.4258,3.4239,3.426,3.4232,3.425,3.4241,3.4242,3.4242,3.4265,3.4267,3.4267,3.4268,0,3.4883,3.4857,3.4819,3.4775,3.4745,3.4706,3.4665,3.4652,3.4583,3.4559,3.4521,3.4493,3.4441,3.4402,3.4357,3.4324,3.4286,3.4278,3.4278,3.4294,3.4316,3.4306,3.4233,3.4276,3.4275,3.4275,3.4274,3.4274,3.4925,3.4909,3.4856,3.4818,3.4782,3.4746,3.4726,3.4683,3.465,3.4602,3.4569,3.4534,3.4487,3.4422,3.4392,3.4366,3.4349,3.4349,3.4349,3.435,3.4357,3.4321,3.4357,3.4357,3.4357,3.4356,3.4356,0,3.4969,3.4933,3.4899,3.4844,3.4816,3.4783,3.4738,3.4717,3.4686,3.4645,3.4612,3.4571,3.4535,3.4484,3.4444,3.4434,3.4416,3.4426,3.4426,3.442,3.4373,3.4377,3.4442,3.4442,3.4442,3.4442,3.4442,3.4442,3.4988,3.496,3.4929,3.4885,3.4849,3.4814,3.4792,3.476,3.4727,3.4684,3.4654,3.4621,3.4576,3.4535,3.4502,3.4488,3.4477,3.4492,3.4473,3.4431,3.4423,3.4415,3.4418,3.449,3.449,3.4522,3.4522,3.4522]},{"header":{"parameterUnit":"m.s-1","parameterCategory":1,"la1":30.2991,"la2":30.254,"lo1":-89.0895,"lo2":-89.0444,"dy":0.0017,"dx":0.0017,"nx":28,"ny":28,"refTime":"2024-02-11T03:00:00:Z","depth":0,"parameterNumber":3,"parameterNumberName":"V-component_of_WINDS"},"data":[0,0,0,0,0,0,0,0,0,0,0,0,0,0,0,0,0,0,0,0,0,0,0,0,0,0,0,0,0,0,0,0,0,0,0,0,0,0,0,0,0,0,0,0,0,0,0,0,0,0,0,0,0,0,0,0,0,0,1.8191,1.8191,0,1.8194,1.8194,1.8194,1.8151,1.815,1.8149,1.8148,1.8151,1.8152,1.8154,0,0,0,0,0,0,0,0,0,0,0,0,0,1.8145,1.8146,1.8191,1.8191,1.8191,1.8194,1.8194,1.8194,1.8151,1.815,1.8148,1.8147,1.8151,1.8152,1.8154,0,0,0,0,0,0,0,0,0,0,0,0,0,1.8158,1.8146,1.8191,1.817,1.8168,1.8194,1.8194,1.8195,1.8152,1.815,1.8148,1.8146,1.815,1.8152,1.8154,1.82,0,0,1.8159,1.816,0,0,0,0,0,0,0,0,1.8158,1.816,1.8173,1.8171,1.8169,1.817,1.8179,1.8197,1.8152,1.8158,1.8148,1.8146,1.8159,1.816,1.8165,1.8201,1.8201,1.8159,1.8161,1.8161,1.8162,0,0,0,0,0,0,0,1.8157,1.816,1.8192,1.8173,1.8171,1.816,1.816,1.8183,1.8168,1.8157,1.8154,1.8155,1.8158,1.8163,1.8164,1.8201,1.8159,1.8161,1.8162,1.8163,1.8274,1.8275,0,0,0,0,0,0,1.8159,1.8159,1.8192,1.8192,1.8159,1.8162,1.8162,1.8172,1.8168,1.8166,1.8157,1.8153,1.8161,1.8162,1.8164,1.8218,1.8161,1.8163,1.8164,1.8272,1.8274,1.8276,0,0,0,0,0,0,1.8158,1.8162,1.8192,1.8175,1.8178,1.8165,1.8176,1.8173,1.8178,1.8168,1.8165,1.8165,1.8159,1.8162,1.8191,1.8217,1.8164,1.8165,1.827,1.8272,1.8275,1.8326,0,0,0,0,0,0,1.8157,1.8162,1.818,1.8176,1.8179,1.822,1.8178,1.8174,1.8181,1.8177,1.8174,1.8172,1.8158,1.8189,1.8193,1.8219,1.8167,1.8267,1.8271,1.8274,1.8322,1.833,1.8337,0,0,0,0,0,1.8155,1.8195,1.8182,1.8186,1.8201,1.8221,1.8223,1.8206,1.8184,1.8201,1.8194,1.8172,1.8214,1.8192,1.8197,1.8224,1.8266,1.827,1.8274,1.8319,1.8329,1.8337,0,0,0,0,0,0,1.8204,1.8194,1.8179,1.8218,1.8221,1.8214,1.8236,1.8218,1.8227,1.8222,1.8201,1.82,1.8233,1.8231,1.8208,1.8268,1.8236,1.8241,1.8268,1.8278,1.8285,1.8285,1.8168,0,0,0,0,0,1.8219,1.8236,1.8227,1.8262,1.8264,1.825,1.8258,1.8245,1.8246,1.8247,1.8242,1.8245,1.8258,1.8268,1.8279,1.8321,1.832,1.8341,1.8349,1.8355,1.836,1.8381,1.8391,1.829,1.829,1.829,0,0,1.8251,1.8247,1.826,1.8272,1.8272,1.829,1.8251,1.8272,1.8285,1.825,1.8278,1.8274,1.8276,1.8311,1.8327,1.831,1.8388,1.8361,1.8366,1.8367,1.8387,1.8396,1.8405,1.8293,1.8292,1.8292,0,0,1.8318,1.8317,1.8346,1.8347,1.8348,1.8338,1.8344,1.834,1.8336,1.8363,1.8337,1.8352,1.8376,1.8377,1.8381,1.8446,1.8426,1.845,1.8491,1.8511,1.8519,1.8526,1.8549,1.8557,1.8455,1.8455,1.8455,0,1.8357,1.8383,1.8363,1.8386,1.8391,1.836,1.8388,1.839,1.8395,1.8399,1.838,1.8409,1.8407,1.8442,1.8458,1.8462,1.8469,1.8451,1.852,1.8526,1.8533,1.8554,1.8563,1.8458,1.8458,1.8458,1.8457,0,1.8431,1.845,1.8473,1.8477,1.8485,1.8511,1.8494,1.8504,1.8489,1.8481,1.8508,1.8505,1.8515,1.8522,1.8509,1.8555,1.8545,1.8523,1.8491,1.8546,1.8565,1.8573,1.8463,1.8462,1.8461,1.846,0,0,1.8531,1.8522,1.8531,1.8532,1.853,1.8543,1.8566,1.8576,1.8585,1.8588,1.8607,1.8627,1.8606,1.8611,1.8596,1.8614,1.8665,1.859,1.859,1.8604,1.8716,1.8732,1.8742,1.8651,1.8653,1.8654,1.8716,0,1.8596,1.8635,1.8617,1.8658,1.8674,1.8643,1.8663,1.8663,1.8656,1.8668,1.8659,1.8673,1.8645,1.8648,1.8664,1.8656,1.8687,1.8651,1.8668,1.8669,1.867,1.8752,1.877,1.8828,1.8723,1.8725,1.8725,0,1.8677,1.8683,1.8726,1.8719,1.8725,1.8743,1.875,1.8762,1.8761,1.8754,1.8758,1.8739,1.876,1.8727,1.8756,1.8732,1.8737,1.8734,1.8736,1.8737,1.8701,1.8756,1.8847,1.8855,1.8738,1.8737,1.8736,0,1.8745,1.8764,1.8792,1.8793,1.8786,1.8799,1.8797,1.8794,1.88,1.8805,1.8809,1.8817,1.8821,1.8828,1.8811,1.8789,1.8842,1.8808,1.8836,1.8837,1.885,1.8849,1.8943,1.8853,1.8853,1.8853,1.8853,0,1.882,1.8847,1.8822,1.8839,1.8868,1.8846,1.8875,1.8869,1.8867,1.8882,1.8855,1.887,1.8847,1.8859,1.8846,1.8871,1.8873,1.8868,1.8864,1.887,1.8871,1.8874,1.887,1.8855,1.8855,1.8854,1.8854,0,1.8901,1.8886,1.8913,1.8903,1.8901,1.8923,1.8914,1.8929,1.8918,1.8938,1.8941,1.8925,1.8937,1.8921,1.8932,1.8923,1.8958,1.8948,1.8958,1.8956,1.8985,1.8982,1.9084,1.9096,1.8999,1.9,1.9001,0,1.895,1.897,1.8962,1.8969,1.8968,1.8981,1.8987,1.8965,1.8972,1.8972,1.8987,1.8997,1.9004,1.9025,1.9015,1.9023,1.9013,1.9048,1.9014,1.9019,1.9013,1.9012,1.9014,1.9055,1.9056,1.9057,1.9058,0,1.9039,1.9029,1.9038,1.9044,1.9052,1.9056,1.9058,1.9065,1.9043,1.9052,1.9064,1.9069,1.908,1.909,1.9095,1.9092,1.9071,1.9068,1.9075,1.9082,1.9087,1.9084,1.8977,1.9066,1.9065,1.9065,1.9064,1.9064,1.9105,1.9121,1.9117,1.9127,1.9126,1.9128,1.9141,1.9131,1.9141,1.9148,1.9134,1.915,1.9146,1.9151,1.915,1.9161,1.9146,1.9156,1.9159,1.9162,1.9166,1.9085,1.9162,1.9162,1.9162,1.9161,1.9161,0,1.9192,1.9187,1.9197,1.92,1.9208,1.9186,1.9186,1.9195,1.9208,1.9207,1.9214,1.9227,1.9236,1.9226,1.9233,1.9244,1.9235,1.9247,1.9246,1.9245,1.918,1.9173,1.9254,1.9254,1.9254,1.9254,1.9254,1.9254,1.9238,1.9263,1.9253,1.9276,1.9271,1.9285,1.9287,1.9289,1.9287,1.9303,1.931,1.9303,1.9297,1.9304,1.9311,1.9308,1.9312,1.9327,1.932,1.9259,1.925,1.9241,1.9235,1.9328,1.9328,1.9385,1.9386,1.9386]}]]